DW1806 Weather Reports


Display with metric or nautical units.
time (UTC)temp
F
wind
direction
speed
MPH
gust
MPH
rain 1hr
in
rain 24hr
in
rain mn
in
humidity
%
barometer
mb
20260509072546 45 151 0.0 0.0 0.00 0.00 0.00 69 1006.7
20260509072041 45 151 0.0 0.0 0.00 0.00 0.00 69 1006.8
20260509071541 45 150 0.0 0.0 0.00 0.00 0.00 69 1006.9
20260509071039 45 142 0.0 0.0 0.00 0.00 0.00 70 1006.9
20260509070541 44 154 0.0 0.0 0.00 0.00 0.00 70 1006.9
20260509070038 44 177 0.0 0.0 0.00 0.00 0.00 71 1006.9
20260509065537 43 177 0.0 0.0 0.00 0.00 0.00 71 1007.0
20260509065036 43 177 0.0 0.0 0.00 0.00 0.00 70 1007.0
20260509064537 44 177 0.0 0.0 0.00 0.00 0.00 70 1007.1
20260509064035 44 177 0.0 0.0 0.00 0.00 0.00 70 1007.1
20260509063534 44 177 0.0 0.0 0.00 0.00 0.00 69 1007.2
20260509063035 44 177 0.0 0.0 0.00 0.00 0.00 69 1007.3
20260509062534 44 177 0.0 0.0 0.00 0.00 0.00 69 1007.3
20260509062033 44 177 0.0 0.0 0.00 0.00 0.00 69 1007.4
20260509061534 44 177 0.0 0.0 0.00 0.00 0.00 68 1007.5
20260509061032 44 177 0.0 0.0 0.00 0.00 0.00 68 1007.6
20260509060531 44 177 0.0 0.0 0.00 0.00 0.00 68 1007.7
20260509060042 44 196 0.0 0.0 0.00 0.00 0.00 68 1007.8
20260509055530 44 215 0.0 0.0 0.00 0.00 0.00 68 1007.9
20260509055033 44 221 0.0 0.0 0.00 0.00 0.00 68 1007.9
20260509054528 44 221 0.0 0.0 0.00 0.00 0.00 69 1007.9
20260509054028 43 221 0.0 0.0 0.00 0.00 0.00 69 1008.0
20260509053527 43 221 0.0 0.0 0.00 0.00 0.00 69 1008.1
20260509053032 43 222 0.0 0.0 0.00 0.00 0.00 69 1008.1
20260509052525 43 222 0.0 0.0 0.00 0.00 0.00 70 1008.2
20260509052025 43 222 0.0 0.0 0.00 0.00 0.00 70 1008.1
20260509051525 43 222 0.0 0.0 0.00 0.00 0.00 71 1008.2
20260509051023 42 222 0.0 0.0 0.00 0.00 0.00 72 1008.2
20260509050523 42 222 0.0 0.0 0.00 0.00 0.00 73 1008.3
20260509050022 42 222 0.0 0.0 0.00 0.00 0.00 73 1008.3
20260509045522 42 222 0.0 0.0 0.00 0.00 0.00 72 1008.3
20260509045020 42 222 0.0 0.0 0.00 0.00 0.00 72 1008.4
20260509044532 42 222 0.0 0.0 0.00 0.00 0.00 72 1008.5
20260509044021 42 222 0.0 0.0 0.00 0.00 0.00 72 1008.4
20260509043518 42 222 0.0 0.0 0.00 0.00 0.00 71 1008.5
20260509043024 42 222 0.0 0.0 0.00 0.00 0.00 70 1008.6
20260509042517 42 222 0.0 0.0 0.00 0.00 0.00 70 1008.7
20260509042018 42 222 0.0 0.0 0.00 0.00 0.00 69 1008.7
20260509041517 42 222 0.0 0.0 0.00 0.00 0.00 69 1008.8
20260509041016 42 222 0.0 0.0 0.00 0.00 0.00 69 1008.7
20260509040515 42 222 0.0 0.0 0.00 0.00 0.00 69 1008.6
20260509040014 42 222 0.0 0.0 0.00 0.00 0.00 69 1008.7
20260509035514 42 222 0.0 0.0 0.00 0.00 0.08 69 1008.8
20260509035015 42 222 0.0 0.0 0.00 0.00 0.08 69 1008.8
20260509034514 42 222 0.0 0.0 0.00 0.00 0.08 69 1009.0
20260509034017 42 222 0.0 0.0 0.00 0.00 0.08 69 1009.0
20260509033515 42 222 0.0 0.0 0.00 0.00 0.08 69 1009.0
20260509033014 42 222 0.0 0.0 0.00 0.00 0.08 68 1008.9
20260509032515 43 222 0.0 0.0 0.00 0.00 0.08 68 1009.1
20260509032014 43 222 0.0 0.0 0.00 0.00 0.08 67 1009.0
20260509031517 43 222 0.0 0.0 0.00 0.00 0.08 67 1009.1
20260509031013 43 222 0.0 0.0 0.00 0.00 0.08 67 1009.2
20260509030513 43 222 0.0 0.0 0.00 0.00 0.08 66 1009.2
20260509030012 43 222 0.0 0.0 0.00 0.00 0.08 66 1009.2
20260509025513 43 222 0.0 0.0 0.00 0.00 0.08 65 1009.2
20260509025012 44 222 0.0 0.0 0.00 0.00 0.08 64 1009.2
20260509024514 44 222 0.0 0.0 0.00 0.00 0.08 64 1009.2
20260509024013 44 222 0.0 0.0 0.00 0.00 0.08 63 1009.2
20260509023513 44 222 0.0 0.0 0.00 0.00 0.08 62 1009.3
20260509023013 45 222 0.0 0.0 0.00 0.00 0.08 60 1009.4
20260509022513 45 222 0.0 0.0 0.00 0.00 0.08 59 1009.4
20260509022012 45 222 0.0 0.0 0.00 0.00 0.08 59 1009.4
20260509021512 45 222 0.0 0.0 0.00 0.00 0.08 59 1009.3
20260509021011 46 222 0.0 0.0 0.00 0.00 0.08 59 1009.2
20260509020511 46 222 0.0 0.0 0.00 0.00 0.08 58 1009.3
20260509020011 46 222 0.0 0.0 0.00 0.00 0.08 57 1009.2
20260509015512 46 222 0.0 0.0 0.00 0.00 0.08 56 1009.1
20260509015011 47 222 0.0 0.0 0.00 0.00 0.08 54 1009.0
20260509014511 47 222 0.0 0.0 0.00 0.00 0.08 52 1008.9
20260509014010 47 222 0.0 0.0 0.00 0.00 0.08 51 1008.9
20260509013510 48 222 0.0 0.0 0.00 0.00 0.08 51 1008.9
20260509013011 48 222 0.0 0.0 0.00 0.00 0.08 50 1008.9
20260509012512 49 222 0.0 0.0 0.00 0.00 0.08 47 1008.8
20260509012010 49 222 0.0 0.0 0.00 0.00 0.08 45 1008.9
20260509011510 49 222 0.0 0.0 0.00 0.00 0.08 44 1008.9
20260509011010 50 222 0.0 0.0 0.00 0.00 0.08 43 1008.8
20260509010509 50 222 0.0 0.0 0.00 0.00 0.08 41 1008.8
20260509010016 51 222 0.0 0.0 0.00 0.00 0.08 40 1008.9
20260509005509 51 222 0.0 0.0 0.00 0.00 0.08 39 1008.9
20260509005009 52 222 0.0 0.0 0.00 0.00 0.08 37 1008.9
20260509004509 52 222 0.0 0.0 0.00 0.00 0.08 35 1008.9
20260509004009 52 222 0.0 0.0 0.00 0.00 0.08 35 1008.9
20260509003509 52 222 0.0 0.0 0.00 0.00 0.08 35 1008.8
20260509003018 53 219 0.0 0.0 0.00 0.00 0.08 35 1008.8
20260509002508 53 219 0.0 0.0 0.00 0.00 0.08 34 1008.8
20260509002008 53 221 0.0 0.0 0.00 0.00 0.08 34 1008.6
20260509001509 53 221 0.0 0.0 0.00 0.00 0.08 35 1008.6
20260509001007 54 221 0.0 0.0 0.00 0.00 0.08 34 1008.5
20260509000507 54 264 0.0 0.0 0.00 0.00 0.08 34 1008.5
20260509000008 54 238 0.0 0.0 0.00 0.00 0.08 33 1008.5
20260508235508 54 238 0.0 0.0 0.00 0.00 0.08 33 1008.4
20260508235008 55 236 0.0 0.0 0.00 0.00 0.08 32 1008.5
20260508234508 54 232 0.0 0.0 0.00 0.00 0.08 31 1008.5
20260508234007 55 180 0.0 0.0 0.00 0.00 0.08 32 1008.5
20260508233510 55 227 0.0 0.0 0.00 0.00 0.08 30 1008.5
20260508233007 55 171 0.0 0.0 0.00 0.00 0.08 30 1008.4
20260508232507 56 188 0.0 0.0 0.00 0.00 0.08 30 1008.5
20260508232007 56 211 0.0 0.0 0.00 0.00 0.08 29 1008.6
20260508231507 56 227 0.0 0.0 0.00 0.00 0.08 29 1008.5
20260508231006 56 205 0.0 0.0 0.00 0.00 0.08 30 1008.5
20260508230504 56 231 0.0 0.0 0.00 0.00 0.08 33 1008.5
20260508230007 56 226 0.0 0.0 0.00 0.00 0.08 35 1008.5
20260508225508 56 229 0.0 0.0 0.00 0.00 0.08 35 1008.5
20260508225004 56 214 0.0 0.0 0.00 0.00 0.08 36 1008.6
20260508224508 56 227 0.0 0.0 0.00 0.00 0.08 36 1008.6
20260508224003 57 209 0.0 0.0 0.00 0.00 0.08 37 1008.6
20260508223503 57 270 0.0 0.0 0.00 0.00 0.08 38 1008.6
20260508223013 56 271 0.0 0.0 0.00 0.00 0.08 36 1008.7
20260508222504 56 183 0.0 0.0 0.00 0.00 0.08 36 1008.7
20260508222003 56 190 0.0 0.0 0.00 0.00 0.08 36 1008.6
20260508221503 57 260 0.0 0.0 0.00 0.00 0.08 38 1008.6
20260508221004 57 222 0.0 0.0 0.00 0.00 0.08 36 1008.6
20260508220503 57 272 0.0 0.0 0.00 0.00 0.08 36 1008.7
20260508220002 57 244 0.0 0.0 0.00 0.00 0.08 36 1008.6
20260508215502 57 264 0.0 0.0 0.00 0.00 0.08 36 1008.7
20260508215002 57 273 0.0 0.0 0.00 0.00 0.08 37 1008.6
20260508214502 57 169 0.0 0.0 0.00 0.00 0.08 38 1008.6
20260508214001 57 238 0.0 0.0 0.00 0.00 0.08 37 1008.7
20260508213501 57 211 0.0 0.0 0.00 0.00 0.08 37 1008.6
20260508213002 57 292 0.0 0.0 0.00 0.00 0.08 38 1008.6
20260508212501 57 231 0.0 0.0 0.00 0.00 0.08 38 1008.6
20260508212000 57 255 0.0 0.0 0.00 0.00 0.08 39 1008.6
20260508211502 57 240 0.0 0.0 0.00 0.00 0.08 37 1008.5
20260508211100 57 232 0.0 0.0 0.00 0.00 0.08 38 1008.5
20260508210600 57 273 0.0 0.0 0.00 0.00 0.08 37 1008.5
20260508205559 57 279 0.0 0.0 0.00 0.00 0.08 38 1008.5
20260508205100 57 270 0.0 0.0 0.00 0.00 0.08 37 1008.5
20260508204602 58 242 0.0 0.0 0.00 0.00 0.08 36 1008.5
20260508204057 57 273 0.0 0.0 0.00 0.00 0.08 42 1008.6
20260508203557 57 196 0.0 0.0 0.00 0.00 0.08 38 1008.7
20260508203102 57 216 0.0 0.0 0.00 0.00 0.08 38 1008.8
20260508202557 57 206 0.0 0.0 0.00 0.00 0.08 38 1008.7
20260508202056 57 225 0.0 0.0 0.00 0.00 0.08 42 1008.9
20260508201557 57 235 0.0 0.0 0.00 0.00 0.08 38 1009.0
20260508201053 57 244 0.0 0.0 0.00 0.00 0.08 40 1009.0
20260508200552 57 223 0.0 0.0 0.00 0.00 0.08 43 1009.1
20260508200053 57 296 0.0 0.0 0.00 0.00 0.08 43 1009.1
20260508195550 56 157 0.0 0.0 0.00 0.00 0.08 45 1009.1
20260508195049 56 169 0.0 0.0 0.00 0.00 0.08 45 1009.2
20260508194555 56 232 0.0 0.0 0.00 0.00 0.08 47 1009.2
20260508194047 56 173 0.0 0.0 0.00 0.00 0.08 48 1009.4
20260508193546 55 175 0.0 0.0 0.00 0.00 0.08 50 1009.5
20260508193103 55 225 0.0 0.0 0.00 0.00 0.08 50 1009.5
20260508192546 55 173 0.0 0.0 0.00 0.00 0.08 52 1009.7
20260508192046 56 192 0.0 0.0 0.00 0.00 0.08 50 1009.7
20260508191546 56 178 0.0 0.0 0.00 0.00 0.08 51 1009.8
20260508191044 55 288 0.0 0.0 0.00 0.00 0.08 50 1009.8
20260508190544 55 180 0.0 0.0 0.00 0.00 0.08 53 1009.9
20260508190044 55 173 0.0 0.0 0.00 0.00 0.08 54 1010.0
20260508185542 55 180 0.0 0.0 0.00 0.00 0.08 53 1009.9
20260508185042 55 205 0.0 0.0 0.00 0.00 0.08 55 1010.0
20260508184550 54 273 0.0 0.0 0.00 0.00 0.08 57 1010.0
20260508184041 54 227 0.0 0.0 0.00 0.00 0.08 54 1010.0
20260508183542 54 275 0.0 0.0 0.00 0.00 0.08 55 1010.0
20260508183042 54 155 0.0 0.0 0.00 0.00 0.08 53 1010.1
20260508182541 54 247 0.0 0.0 0.00 0.00 0.08 56 1010.1
20260508182040 54 189 0.0 0.0 0.00 0.00 0.08 56 1010.1
20260508181552 54 165 0.0 0.0 0.00 0.00 0.08 56 1010.1
20260508181043 54 234 0.0 0.0 0.00 0.00 0.08 58 1010.0
20260508180540 54 159 0.0 0.0 0.00 0.00 0.08 58 1010.1
20260508180043 53 163 0.0 0.0 0.00 0.00 0.08 58 1010.1
20260508175540 54 182 0.0 0.0 0.00 0.00 0.08 58 1010.1
20260508175039 54 262 0.0 0.0 0.00 0.00 0.08 57 1010.1
20260508174539 54 192 0.0 0.0 0.00 0.00 0.08 55 1010.1
20260508174038 54 284 0.0 0.0 0.00 0.00 0.08 56 1010.2
20260508173538 53 267 0.0 0.0 0.00 0.00 0.08 56 1010.2
20260508173038 53 155 0.0 0.0 0.00 0.00 0.08 56 1010.4
20260508172538 53 200 0.0 0.0 0.00 0.00 0.08 55 1010.5
20260508172039 54 158 0.0 0.0 0.00 0.00 0.08 57 1010.4
20260508171543 53 225 0.0 0.0 0.00 0.00 0.08 57 1010.4
20260508171039 53 156 0.0 0.0 0.00 0.00 0.08 56 1010.4
20260508170537 53 244 0.0 0.0 0.00 0.00 0.08 58 1010.4
20260508170041 53 207 0.0 0.0 0.00 0.00 0.08 60 1010.5
20260508165536 53 239 0.0 0.0 0.00 0.00 0.08 54 1010.4
20260508165036 54 277 0.0 0.0 0.00 0.00 0.08 58 1010.4
20260508164535 53 330 0.0 0.0 0.00 0.00 0.08 57 1010.5
20260508164036 53 249 0.0 0.0 0.00 0.00 0.08 57 1010.6
20260508163536 53 234 0.0 0.0 0.00 0.00 0.08 57 1010.6
20260508163040 52 234 0.0 0.0 0.00 0.00 0.08 59 1010.8
20260508162535 52 290 0.0 0.0 0.00 0.00 0.08 60 1010.9
20260508162035 52 220 0.0 0.0 0.00 0.00 0.08 61 1010.9
20260508161536 52 257 0.0 0.0 0.00 0.00 0.08 58 1011.0
20260508161033 53 254 0.0 0.0 0.00 0.00 0.08 62 1010.9
20260508160533 52 317 0.0 0.0 0.00 0.00 0.08 64 1011.0
20260508160053 51 300 0.0 0.0 0.00 0.00 0.08 65 1011.0
20260508155532 51 243 0.0 0.0 0.00 0.00 0.08 67 1011.1
20260508155031 51 219 0.0 0.0 0.00 0.00 0.08 66 1011.0
20260508154533 52 237 0.0 0.0 0.00 0.00 0.08 67 1011.1
20260508154031 51 323 0.0 0.0 0.00 0.00 0.08 66 1011.1
20260508153530 51 288 0.0 0.0 0.00 0.00 0.08 65 1011.1
20260508153030 51 324 0.0 0.0 0.00 0.00 0.08 69 1011.3
20260508152527 50 282 0.0 0.0 0.00 0.00 0.08 67 1011.3
20260508152026 50 319 0.0 0.0 0.00 0.00 0.08 71 1011.3
20260508151525 49 255 0.0 0.0 0.00 0.00 0.08 70 1011.4
20260508151024 49 305 0.0 0.0 0.00 0.00 0.08 73 1011.4
20260508150522 48 271 0.0 0.0 0.00 0.00 0.08 76 1011.4
20260508150022 48 269 0.0 0.0 0.00 0.00 0.08 78 1011.5
20260508145522 47 269 0.0 0.0 0.00 0.00 0.08 77 1011.4
20260508145022 47 262 0.0 0.0 0.00 0.00 0.08 79 1011.4
20260508144518 47 262 0.0 0.0 0.00 0.00 0.08 79 1011.4
20260508144018 46 325 0.0 0.0 0.00 0.00 0.08 80 1011.4
20260508143516 46 263 0.0 0.0 0.00 0.00 0.08 80 1011.4
20260508143019 46 258 0.0 0.0 0.00 0.00 0.08 82 1011.4
20260508142519 46 269 0.0 0.0 0.00 0.00 0.08 83 1011.3
20260508142015 45 246 0.0 0.0 0.00 0.00 0.08 83 1011.3
20260508141517 46 246 0.0 0.0 0.00 0.00 0.08 84 1011.3
20260508141012 45 304 0.0 0.0 0.00 0.00 0.08 87 1011.2
20260508140513 44 267 0.0 0.0 0.00 0.00 0.08 86 1011.2
20260508140017 44 190 0.0 0.0 0.00 0.00 0.08 87 1011.4
20260508135514 44 184 0.0 0.0 0.00 0.00 0.08 88 1011.5
20260508135011 44 184 0.0 0.0 0.00 0.00 0.08 89 1011.4
20260508134526 43 184 0.0 0.0 0.00 0.00 0.08 89 1011.5
20260508134013 43 184 0.0 0.0 0.00 0.00 0.08 89 1011.4
20260508133510 43 188 0.0 0.0 0.00 0.00 0.08 89 1011.4
20260508133016 43 188 0.0 0.0 0.00 0.00 0.08 90 1011.5
20260508132510 42 188 0.0 0.0 0.00 0.00 0.08 89 1011.4
20260508132010 42 188 0.0 0.0 0.00 0.00 0.08 89 1011.4
20260508131510 41 188 0.0 0.0 0.00 0.00 0.08 89 1011.4
20260508131009 42 190 0.0 0.0 0.00 0.00 0.08 89 1011.4
20260508130509 41 219 0.0 0.0 0.00 0.00 0.08 89 1011.4
20260508130008 41 220 0.0 0.0 0.00 0.00 0.08 89 1011.3
20260508125509 41 220 0.0 0.0 0.00 0.00 0.08 89 1011.2
20260508125008 41 220 0.0 0.0 0.00 0.00 0.08 89 1011.2
20260508124511 41 221 0.0 0.0 0.00 0.00 0.08 89 1011.2
20260508124008 41 314 0.0 0.0 0.00 0.00 0.08 89 1011.3
20260508123508 41 317 0.0 0.0 0.00 0.00 0.08 89 1011.2
20260508123012 41 317 0.0 0.0 0.00 0.00 0.08 88 1011.2
20260508122511 41 317 0.0 0.0 0.00 0.00 0.08 88 1011.1
20260508122008 41 317 0.0 0.0 0.00 0.00 0.08 88 1011.2
20260508121523 41 317 0.0 0.0 0.00 0.00 0.08 88 1011.2
20260508121007 41 317 0.0 0.0 0.00 0.00 0.07 88 1011.2
20260508120512 41 317 0.0 0.0 0.00 0.00 0.07 88 1011.2
20260508120007 41 317 0.0 0.0 0.00 0.00 0.07 88 1011.2
20260508115506 41 317 0.0 0.0 0.00 0.00 0.07 88 1011.1
20260508115006 41 317 0.0 0.0 0.00 0.00 0.07 88 1011.1
20260508114507 41 317 0.0 0.0 0.00 0.00 0.07 87 1011.2
20260508114007 41 317 0.0 0.0 0.00 0.00 0.07 87 1011.4
20260508113507 41 257 0.0 0.0 0.00 0.00 0.06 87 1011.3
20260508113006 41 295 0.0 0.0 0.00 0.00 0.06 87 1011.3
20260508112505 41 263 0.0 0.0 0.00 0.00 0.06 87 1011.4
20260508112004 41 264 0.0 0.0 0.00 0.00 0.05 86 1011.2
20260508111504 42 286 0.0 0.0 0.00 0.00 0.04 86 1011.0
20260508111003 42 277 0.0 0.0 0.00 0.00 0.04 87 1010.9
20260508110502 42 284 0.0 0.0 0.00 0.00 0.03 88 1010.9
20260508110002 42 239 0.0 0.0 0.00 0.00 0.02 87 1010.7
20260508105504 42 239 0.0 0.0 0.00 0.00 0.02 87 1010.4
20260508105002 42 239 0.0 0.0 0.00 0.00 0.02 87 1010.3
20260508104502 42 239 0.0 0.0 0.00 0.00 0.02 87 1010.2
20260508104002 42 239 0.0 0.0 0.00 0.00 0.02 87 1010.0
20260508103502 42 239 0.0 0.0 0.00 0.00 0.02 87 1010.1
20260508103005 42 239 0.0 0.0 0.00 0.00 0.02 86 1010.1
20260508102502 42 239 0.0 0.0 0.00 0.00 0.02 86 1010.1
20260508102002 42 236 0.0 0.0 0.00 0.00 0.02 87 1010.2
20260508101502 42 268 0.0 0.0 0.00 0.00 0.02 87 1010.1
20260508101000 43 268 0.0 0.0 0.00 0.00 0.02 87 1010.0
20260508100600 43 271 0.0 0.0 0.00 0.00 0.02 88 1009.9
20260508100100 43 242 0.0 0.0 0.00 0.00 0.02 88 1009.9
20260508095600 43 242 0.0 0.0 0.00 0.00 0.01 88 1009.9
20260508095100 43 242 0.0 0.0 0.00 0.00 0.01 88 1009.9
20260508094610 43 242 0.0 0.0 0.00 0.00 0.01 88 1010.0
20260508094100 43 242 0.0 0.0 0.00 0.00 0.01 88 1009.9
20260508093600 43 242 0.0 0.0 0.00 0.00 0.01 88 1009.8
20260508093100 43 242 0.0 0.0 0.00 0.00 0.01 88 1009.6
20260508092600 43 242 0.0 0.0 0.00 0.00 0.00 88 1009.7
20260508092058 43 242 0.0 0.0 0.00 0.00 0.00 88 1010.1
20260508091605 43 242 0.0 0.0 0.00 0.00 0.00 89 1010.2
20260508091057 43 242 0.0 0.0 0.00 0.00 0.00 89 1010.1
20260508090557 43 242 0.0 0.0 0.00 0.00 0.00 89 1010.0
20260508090058 43 242 0.0 0.0 0.00 0.00 0.00 89 1010.0
20260508085556 43 242 0.0 0.0 0.00 0.00 0.00 90 1009.9
20260508085056 43 242 0.0 0.0 0.00 0.00 0.00 90 1010.1
20260508084556 43 242 0.0 0.0 0.00 0.00 0.00 91 1010.1
20260508084056 43 234 0.0 0.0 0.00 0.00 0.00 91 1010.1
20260508083555 43 234 0.0 0.0 0.00 0.00 0.00 92 1010.2
20260508083141 43 210 0.0 0.0 0.00 0.00 0.00 92 1010.3
20260508082556 44 221 0.0 0.0 0.00 0.00 0.00 92 1010.2
20260508082055 44 227 0.0 0.0 0.00 0.00 0.00 92 1010.2
20260508081557 44 230 0.0 0.0 0.00 0.00 0.00 92 1010.3
20260508081054 43 220 0.0 0.0 0.00 0.00 0.00 92 1010.3
20260508080555 43 219 0.0 0.0 0.00 0.00 0.00 92 1010.2
20260508080058 43 205 0.0 0.0 0.00 0.00 0.00 92 1010.2
20260508075551 43 213 0.0 0.0 0.00 0.00 0.00 92 1010.2
20260508075051 43 295 0.0 0.0 0.00 0.00 0.00 92 1010.1
20260508074551 42 329 0.0 0.0 0.00 0.00 0.00 93 1010.2
20260508074050 42 329 0.0 0.0 0.00 0.00 0.00 93 1010.2
20260508073551 42 329 0.0 0.0 0.00 0.00 0.00 92 1010.1
20260508073057 42 329 0.0 0.0 0.00 0.00 0.00 92 1010.1